When you browse on this site, cookies collect data to enhance your experience and personalize the content and advertising you see.
Visit our Privacy Policy to learn more. By continuing to use the site, you agree to this use of cookies and data.
  • In United Kingdom
  • List of Countries
  • For 7 days
  • Water Temperature
  • Weather Map
  • Weather Widgets
  • user-avatar
    Login

    Hourly Weather Kapan

    Today, 19 October, Saturday

    Time Temperature Precipitation Wind Pressure Humidity
    00:00 +16°C° 0 mm 1 mps 686 mmHg 53%
    01:00 +16°C° 0 mm 1 mps 686 mmHg 52%
    02:00 +16°C° 0 mm 1 mps 686 mmHg 50%
    03:00 +16°C° 0 mm 1 mps 686 mmHg 48%
    04:00 +16°C° 0 mm 1 mps 686 mmHg 50%
    05:00 +15°C° 0 mm 1 mps 686 mmHg 52%
    06:00 +15°C° 0 mm 1 mps 686 mmHg 54%
    07:00 +18°C° 0 mm 1 mps 686 mmHg 49%
    08:00 +20°C° 0 mm 1 mps 687 mmHg 44%
    09:00 +22°C° 0 mm 1 mps 687 mmHg 39%
    10:00 +23°C° 0 mm 2 mps 687 mmHg 38%
    11:00 +24°C° 0 mm 2 mps 687 mmHg 37%
    12:00 +25°C° 0 mm 3 mps 687 mmHg 36%
    13:00 +25°C° 0 mm 3 mps 687 mmHg 38%
    14:00 +24°C° 0 mm 3 mps 686 mmHg 40%
    15:00 +24°C° 0 mm 3 mps 686 mmHg 42%
    16:00 +21°C° 0.1 mm 2 mps 686 mmHg 49%
    17:00 +20°C° 0.1 mm 1 mps 686 mmHg 57%
    18:00 +18°C° 0.1 mm 1 mps 686 mmHg 65%
    19:00 +18°C° 0 mm 1 mps 686 mmHg 66%
    20:00 +16°C° 0 mm 0 mps 686 mmHg 66%
    21:00 +15°C° 0 mm 0 mps 686 mmHg 67%
    22:00 +15°C° 0 mm 0 mps 686 mmHg 68%
    23:00 +15°C° 0 mm 0 mps 686 mmHg 69%

    Tomorrow, 20 October, Sunday

    Time Temperature Precipitation Wind Pressure Humidity
    00:00 +16°C° 0 mm 1 mps 686 mmHg 70%
    01:00 +14°C° 0 mm 0 mps 686 mmHg 71%
    02:00 +14°C° 0 mm 0 mps 686 mmHg 72%
    03:00 +14°C° 0 mm 0 mps 686 mmHg 73%
    04:00 +13°C° 0 mm 0 mps 686 mmHg 75%
    05:00 +13°C° 0 mm 0 mps 687 mmHg 76%
    06:00 +13°C° 0 mm 0 mps 687 mmHg 77%
    07:00 +16°C° 0 mm 1 mps 687 mmHg 71%
    08:00 +18°C° 0 mm 1 mps 688 mmHg 65%
    09:00 +19°C° 0 mm 2 mps 688 mmHg 60%
    10:00 +20°C° 0.1 mm 2 mps 688 mmHg 55%
    11:00 +21°C° 0.1 mm 3 mps 688 mmHg 50%
    12:00 +22°C° 0.1 mm 3 mps 688 mmHg 46%
    13:00 +22°C° 0.2 mm 3 mps 688 mmHg 48%
    14:00 +21°C° 0.2 mm 3 mps 687 mmHg 50%
    15:00 +21°C° 0.2 mm 3 mps 687 mmHg 52%
    16:00 +19°C° 0 mm 2 mps 687 mmHg 59%
    17:00 +18°C° 0 mm 2 mps 687 mmHg 67%
    18:00 +16°C° 0 mm 1 mps 687 mmHg 75%
    19:00 +15°C° 0 mm 1 mps 687 mmHg 76%
    20:00 +15°C° 0 mm 1 mps 687 mmHg 77%
    21:00 +15°C° 0 mm 1 mps 688 mmHg 78%
    22:00 +14°C° 0 mm 1 mps 688 mmHg 76%
    23:00 +14°C° 0 mm 1 mps 688 mmHg 75%

    Day after tomorrow, 21 October, Monday

    Time Temperature Precipitation Wind Pressure Humidity
    00:00 +14°C° 0 mm 1 mps 688 mmHg 73%
    01:00 +13°C° 0 mm 1 mps 688 mmHg 69%
    02:00 +13°C° 0 mm 1 mps 688 mmHg 65%
    03:00 +13°C° 0 mm 1 mps 688 mmHg 61%
    04:00 +13°C° 0 mm 1 mps 688 mmHg 60%
    05:00 +13°C° 0 mm 1 mps 688 mmHg 59%
    06:00 +12°C° 0 mm 1 mps 688 mmHg 58%
    07:00 +14°C° 0 mm 1 mps 688 mmHg 52%
    08:00 +15°C° 0 mm 1 mps 689 mmHg 46%
    09:00 +18°C° 0 mm 1 mps 689 mmHg 40%
    10:00 +18°C° 0 mm 2 mps 689 mmHg 37%
    11:00 +19°C° 0 mm 2 mps 689 mmHg 34%
    12:00 +20°C° 0 mm 3 mps 689 mmHg 32%
    13:00 +20°C° 0 mm 3 mps 689 mmHg 32%
    14:00 +19°C° 0 mm 3 mps 688 mmHg 32%
    15:00 +19°C° 0 mm 3 mps 688 mmHg 32%
    16:00 +18°C° 0 mm 2 mps 687 mmHg 37%
    17:00 +16°C° 0 mm 2 mps 687 mmHg 43%
    18:00 +14°C° 0 mm 1 mps 687 mmHg 48%
    19:00 +14°C° 0 mm 1 mps 687 mmHg 50%
    20:00 +13°C° 0 mm 1 mps 687 mmHg 52%
    21:00 +13°C° 0 mm 1 mps 687 mmHg 54%
    22:00 +13°C° 0 mm 1 mps 687 mmHg 55%
    23:00 +13°C° 0 mm 1 mps 687 mmHg 55%

    22 October, Tuesday

    Time Temperature Precipitation Wind Pressure Humidity
    00:00 +12°C° 0 mm 1 mps 687 mmHg 56%
    01:00 +12°C° 0 mm 1 mps 687 mmHg 56%
    02:00 +12°C° 0 mm 1 mps 687 mmHg 56%
    03:00 +12°C° 0 mm 1 mps 687 mmHg 56%
    04:00 +12°C° 0 mm 1 mps 687 mmHg 56%
    05:00 +12°C° 0 mm 1 mps 687 mmHg 56%
    06:00 +12°C° 0 mm 1 mps 687 mmHg 57%
    07:00 +13°C° 0 mm 1 mps 688 mmHg 52%
    08:00 +15°C° 0 mm 1 mps 688 mmHg 46%
    09:00 +18°C° 0 mm 1 mps 689 mmHg 41%
    10:00 +18°C° 0 mm 2 mps 689 mmHg 39%
    11:00 +19°C° 0 mm 2 mps 689 mmHg 36%
    12:00 +20°C° 0 mm 3 mps 689 mmHg 34%
    13:00 +19°C° 0 mm 3 mps 688 mmHg 37%
    14:00 +19°C° 0 mm 3 mps 688 mmHg 39%
    15:00 +19°C° 0 mm 3 mps 688 mmHg 42%
    16:00 +17°C° 0 mm 2 mps 687 mmHg 47%
    17:00 +16°C° 0 mm 1 mps 687 mmHg 53%
    18:00 +15°C° 0 mm 1 mps 687 mmHg 59%
    19:00 +15°C° 0 mm 1 mps 687 mmHg 60%
    20:00 +13°C° 0 mm 0 mps 687 mmHg 61%
    21:00 +13°C° 0 mm 0 mps 688 mmHg 62%
    22:00 +13°C° 0 mm 0 mps 688 mmHg 62%
    23:00 +14°C° 0 mm 1 mps 687 mmHg 63%

    23 October, Wednesday

    Time Temperature Precipitation Wind Pressure Humidity
    00:00 +14°C° 0 mm 1 mps 687 mmHg 63%
    01:00 +12°C° 0 mm 0 mps 687 mmHg 64%
    02:00 +12°C° 0 mm 0 mps 687 mmHg 66%
    03:00 +12°C° 0 mm 0 mps 687 mmHg 67%
    04:00 +11°C° 0 mm 0 mps 687 mmHg 69%
    05:00 +11°C° 0 mm 0 mps 687 mmHg 70%
    06:00 +12°C° 0 mm 1 mps 687 mmHg 72%
    07:00 +13°C° 0 mm 1 mps 688 mmHg 67%
    08:00 +15°C° 0 mm 1 mps 688 mmHg 62%
    09:00 +16°C° 0 mm 1 mps 689 mmHg 57%
    10:00 +17°C° 0 mm 2 mps 688 mmHg 54%
    11:00 +18°C° 0 mm 2 mps 688 mmHg 51%
    12:00 +19°C° 0 mm 2 mps 688 mmHg 49%
    13:00 +19°C° 0 mm 3 mps 688 mmHg 50%
    14:00 +19°C° 0 mm 3 mps 688 mmHg 51%
    15:00 +19°C° 0 mm 3 mps 687 mmHg 53%
    16:00 +17°C° 0 mm 2 mps 687 mmHg 60%
    17:00 +16°C° 0 mm 1 mps 687 mmHg 68%
    18:00 +14°C° 0 mm 1 mps 687 mmHg 75%
    19:00 +14°C° 0 mm 1 mps 687 mmHg 76%
    20:00 +12°C° 0 mm 0 mps 687 mmHg 77%
    21:00 +12°C° 0 mm 0 mps 687 mmHg 78%
    22:00 +13°C° 0 mm 1 mps 687 mmHg 79%
    23:00 +12°C° 0 mm 1 mps 687 mmHg 80%

    24 October, Thursday

    Time Temperature Precipitation Wind Pressure Humidity
    00:00 +12°C° 0 mm 1 mps 687 mmHg 81%
    01:00 +12°C° 0 mm 1 mps 687 mmHg 81%
    02:00 +12°C° 0 mm 1 mps 687 mmHg 81%
    03:00 +12°C° 0 mm 1 mps 687 mmHg 81%
    04:00 +11°C° 0 mm 1 mps 687 mmHg 82%
    05:00 +11°C° 0 mm 1 mps 687 mmHg 82%
    06:00 +10°C° 0 mm 0 mps 687 mmHg 83%
    07:00 +13°C° 0 mm 1 mps 687 mmHg 76%
    08:00 +15°C° 0 mm 1 mps 688 mmHg 70%
    09:00 +18°C° 0 mm 1 mps 688 mmHg 63%
    10:00 +18°C° 0 mm 2 mps 688 mmHg 59%
    11:00 +19°C° 0 mm 2 mps 688 mmHg 55%
    12:00 +20°C° 0 mm 3 mps 688 mmHg 51%
    13:00 +20°C° 0.1 mm 3 mps 688 mmHg 51%
    14:00 +20°C° 0.1 mm 3 mps 687 mmHg 51%
    15:00 +20°C° 0.1 mm 3 mps 687 mmHg 50%
    16:00 +18°C° 0.1 mm 2 mps 687 mmHg 57%
    17:00 +16°C° 0.1 mm 1 mps 687 mmHg 64%
    18:00 +14°C° 0.1 mm 1 mps 687 mmHg 71%
    19:00 +14°C° 0 mm 1 mps 687 mmHg 72%
    20:00 +14°C° 0 mm 1 mps 687 mmHg 73%
    21:00 +13°C° 0 mm 1 mps 687 mmHg 74%
    22:00 +13°C° 0 mm 1 mps 687 mmHg 75%
    23:00 +12°C° 0 mm 0 mps 687 mmHg 76%
    Show more